Regional Weather Roundup
Issued by NWS Upton, NY

Current Version | Previous Version | Graphics & Text | Print | Product List | Glossary Off
Versions: 1 2 3 4 5 6 7 8 9 10 11 12 13 14 15 16 17 18 19 20 21 22 23 24 25 26 27 28 29 30 31 32 33 34 35 36 37 38 39 40 41 42 43 44 45 46 47 48 49 50

000
ASUS41 KOKX 200308
RWROKX

REGIONAL WEATHER ROUNDUP
NATIONAL WEATHER SERVICE NEW YORK NY
1000 PM EST THU JAN 19 2017

NOTE: "FAIR" INDICATES FEW OR NO CLOUDS BELOW 12,000 FEET WITH NO
SIGNIFICANT WEATHER AND/OR OBSTRUCTIONS TO VISIBILITY.

NYZ071-072-176-178-NJZ106-104-200400-
NEW YORK CITY METRO AREA

CITY           SKY/WX    TMP DP  RH WIND       PRES   REMARKS
Central Park   CLOUDY    42  32  67 VRB5      30.03F
Wall St Helipt PTCLDY    43  33  68 VRB3      30.02F
Bronx Bot Gard NOT AVBL
LaGuardia APRT CLOUDY    44  33  65 N8        30.01F
Kennedy INTL   CLOUDY    43  30  60 N8        30.02F
Breezy Point     N/A     41 N/A N/A N5          N/A
Newark/Liberty CLOUDY    39  31  72 NE8       30.02F WCI  33
Teterboro      CLOUDY    42  32  67 N3        30.01F
$$

NYZ177-179-078>081-200400-
LONG ISLAND NEW YORK

CITY           SKY/WX    TMP DP  RH WIND       PRES   REMARKS
Jones Beach      N/A     41 N/A N/A N3          N/A
Matinecock PT  NOT AVBL
Farmingdale    CLOUDY    42  33  70 N8        30.01F
MacArthur/ISP  CLOUDY    42  33  70 NE6       30.01F
Shirley        CLOUDY    41  34  76 VRB6      30.03F
Westhampton    CLOUDY    41  31  67 N7        30.04F
Southampton    NOT AVBL
Bridgehampton  NOT AVBL
East Hampton   CLOUDY    40  32  71 N3        30.02F
Montauk          N/A     43  37  79 NW7       30.03F
$$

NYZ052-065-067-200400-
HUDSON VALLEY

CITY           SKY/WX    TMP DP  RH WIND       PRES   REMARKS
White Plains   MOCLDY    42  33  70 N5        30.00F
Newburgh       MOCLDY    39  36  87 CALM      30.04S
Montgomery     CLOUDY    40  32  73 N3        30.01F
Poughkeepsie   CLOUDY    39  31  72 N6        30.03S WCI  35
Albany         CLOUDY    36  31  82 N5        30.05F WCI  32
$$

NJZ001-105-106-008-010-013-015-019>022-104-200400-
NEW JERSEY

CITY           SKY/WX    TMP DP  RH WIND       PRES   REMARKS
Newark/Liberty CLOUDY    39  31  72 NE8       30.02F WCI  33
Teterboro      CLOUDY    42  32  67 N3        30.01F
Caldwell       CLOUDY    33  30  88 CALM      30.02F
Somerville     PTCLDY    34  30  85 CALM      30.01S
Linden           N/A     39  32  73 CALM      30.02F
Sussex         CLOUDY    29  28  96 CALM      30.01F
Andover          N/A     35  31  85 N3        30.01F
Trenton        CLOUDY    38  32  79 CALM      30.03R
Millville      CLOUDY    31  31 100 CALM      30.05R
Atlantic City  PTCLDY    35  30  82 CALM      30.05R
Wrightstown    CLOUDY    37  32  81 CALM      30.01R
Toms River     CLOUDY    29  27  92 CALM      30.05R
Belmar         PTCLDY    37  32  82 W5        30.03S WCI  33
$$

PAZ047>061-062-071-200400-
EASTERN PENNSYLVANIA

CITY           SKY/WX    TMP DP  RH WIND       PRES   REMARKS
Philadelphia   CLOUDY    38  32  79 S3        30.06R
Allentown      CLOUDY    36  30  79 E5        30.02S WCI  32
Scranton       CLOUDY    38  32  79 E6        29.98F WCI  33
$$

CTZ002-004>006-009-010-012-RIZ004-006-007-MAZ004-011-015-200400-
SOUTHERN NEW ENGLAND
 IN CT

CITY           SKY/WX    TMP DP  RH WIND       PRES   REMARKS
Bradley INTL   CLOUDY    40  32  73 NW5       30.04S
Hartford       CLOUDY    41  31  67 NW6       30.04S
Danbury        CLOUDY    39  29  67 N9        30.03S WCI  33
Wtrbury/Oxford CLOUDY    37  27  65 N9        30.02S WCI  31
Bridgeport     CLOUDY    44  30  57 N10       30.03F
Meriden        CLOUDY    42  30  62 N7        30.04F
New Haven      CLOUDY    41  31  67 N8        30.03S
Chester        CLOUDY    41  32  70 N5        30.02S
Groton         CLOUDY    43  32  65 NW3       30.02F
Wilimantic     CLOUDY    41  33  73 N3        30.03F

 IN RI

CITY           SKY/WX    TMP DP  RH WIND       PRES   REMARKS
Providence     CLOUDY    43  30  60 NW9       30.04R
Block Island   NOT AVBL
Westerly       CLOUDY    43  31  62 N3        30.03S
 IN MA

CITY           SKY/WX    TMP DP  RH WIND       PRES   REMARKS
Boston         CLOUDY    41  30  65 NW12G18   30.04R
Worcester      CLOUDY    37  28  70 N6        30.00F WCI  32
Westfield      CLOUDY    38  33  82 W5        30.04R WCI  34
Provincetown   CLOUDY    42  33  70 NW12      30.02R
Nantucket      CLOUDY    40  34  79 NW5       30.01R
$$

ANZ330-335-338-340-345-350-353-355-200400-
COASTAL MARINE OBSERVATIONS


STATION/POSITION TIME  SKY/WX   TEMP    WIND        PRES    VSBY  WAVE
                                AIR SEA DIR/SP/G                  HT/PER
                 (UTC)          (F)     (DEG/KT/KT) (MB)    (MI)  (FT/S)
NY HARB ENTRANCE 0150            44 44  320/ 10/ 14 1016.7          4/11
20 S FIRE ISLAND 0250            44 45  340/  8/ 10 1016.0          6/11
GREAT SOUTH BAY  NOT AVBL
23 SSW MONTAUK P 0150            45 48  340/ 12/ 14 1017.4          5/10
15 E BARNEGAT LI 0230               48                N/A           5/11
HUDSON CANYON    0150            48 51              1016.2          7/ 9
KINGS POINT      0242            42 39              1016.3
EXECUTION ROCKS  0245            41     350/  4/  4   N/A
CENTRAL LI SOUND 0230            42     340/  8/ 10   N/A
EASTERN LI SOUND NOT AVBL
ROBBINS REEF     0248            41     350/  9/ 10 1016.5
$$


>>>>>>>>>>>>>>>>>>>>>>>>>>>> KEY <<<<<<<<<<<<<<<<<<<<<<<<<<<
>                                                          <
>     SKY/WX - Sky Condition/Present Weather               <
>     TMP    - Temperature in Fahrenheit                   <
>     DP     - Dew Point in Fahrenheit                     <
>     RH     - Relative Humidity in Percent                <
>     WIND   - Direction (from) and Speed in MPH           <
>     PRES   - Mean Sea Level Pressure (inches of Hg)      <
>     WCI    - Wind Chill Index                            <
>     VSB    - VISIBILITY IN MILES                         <
>     HX     - HEAT INDEX                                  <
>     TC     - TEMPERATURE IN CELSIUS                      <
>     VRB    - VARIABLE WIND DIRECTION                     <
>                                                          <
>>>>>>>>>>>>>>>>>>>>>>>>>>>> KEY <<<<<<<<<<<<<<<<<<<<<<<<<<<



USA.gov is the U.S. government's official web portal to all federal, state and local government web resources and services.